Cross City, FL

6:06 AM EST on January 18, 2018 (GMT -0500)
Cross City

Weather History for KCTY - February, 2013

Change the Weather History Date:

Sunday, February 24, 2013

  Actual Average Record
Temperature  
Mean Temperature 70 °F 58 °F  
Max Temperature 76 °F 72 °F 84 °F (2017)
Min Temperature 64 °F 45 °F 27 °F (2009)
Degree Days  
Heating Degree Days 0 7  
Month to date heating degree days 191 213  
Since 1 July heating degree days 797 1091  
Cooling Degree Days 5 1  
Month to date cooling degree days 41 18  
Year to date cooling degree days 92 29  
Growing Degree Days 20 (Base 50)    
Moisture  
Dew Point 64 °F    
Average Humidity 85    
Maximum Humidity 93    
Minimum Humidity 60    
Precipitation  
Precipitation 0.21 in 0.15 in 1.35 in (2004)
Month to date precipitation 1.78 2.62  
Year to date precipitation 2.36 6.66  
Sea Level Pressure  
Sea Level Pressure 29.93 in    
Wind  
Wind Speed 5 mph (ENE)    
Max Wind Speed 12 mph    
Max Gust Speed 38 mph    
T = Trace of Precipitation, MM = Missing Value Source: NWS Daily Summary

Daily Weather History Graph

Daily Weather History Graph

Search for Another Location

Airport or City:

Trip Planner

Search our weather history database for the weather conditions in past years. The results will help you decide how hot, cold, wet, or windy it might be!

Date:

Astronomy

Feb. 24, 2013 Rise Set
Actual Time 7:03 AM EST 6:28 PM EST
Civil Twilight 6:39 AM EST 6:52 PM EST
Nautical Twilight 6:11 AM EST 7:20 PM EST
Astronomical Twilight 5:43 AM EST 7:47 PM EST
Moon 5:38 PM EST (2/24) 5:57 AM EST (2/24)
Length of Visible Light 12h 13m
Length of Day
11h 25m
Waxing Gibbous, 99% of the Moon is Illuminated
Feb 24
Waxing Gibbous
Feb 25
Full
Mar 4
Last Quarter
Mar 11
New
Mar 19
First Quarter

Hourly Weather History & Observations

Time (EST) Temp. Dew Point Humidity Pressure Visibility Wind Dir Wind Speed Gust Speed Precip Events Conditions
12:53 AM 68.0 °F 66.9 °F 96% 29.87 in - SSE 5.8 mph - N/A   Unknown
1:53 AM 69.1 °F 66.9 °F 93% 29.88 in - SSW 5.8 mph - N/A   Unknown
2:53 AM 69.1 °F 66.9 °F 93% 29.87 in - SW 6.9 mph - N/A   Unknown
3:53 AM 68.0 °F 66.9 °F 96% 29.88 in - WSW 6.9 mph - 0.01 in   Unknown
4:53 AM 68.0 °F 66.0 °F 93% 29.89 in - WSW 5.8 mph - N/A   Unknown
5:53 AM 66.0 °F 64.9 °F 96% 29.91 in - North 5.8 mph - N/A   Unknown
6:53 AM 64.9 °F 63.0 °F 93% 29.94 in - North 6.9 mph - N/A   Unknown
7:53 AM 64.0 °F 63.0 °F 96% 29.96 in - North 6.9 mph - N/A   Unknown
8:53 AM 64.9 °F 63.0 °F 93% 29.97 in - NNE 8.1 mph - N/A   Unknown
9:53 AM 66.0 °F 63.0 °F 90% 29.98 in - NE 5.8 mph - N/A   Unknown
10:53 AM 69.1 °F 62.1 °F 78% 29.99 in - NE 4.6 mph - N/A   Unknown
11:53 AM 70.0 °F 61.0 °F 73% 29.98 in - ENE 5.8 mph - N/A   Unknown
12:53 PM 73.0 °F 62.1 °F 68% 29.96 in - NE 4.6 mph - N/A   Unknown
1:53 PM 73.9 °F 61.0 °F 64% 29.94 in - East 5.8 mph - N/A   Unknown
2:53 PM 75.0 °F 61.0 °F 62% 29.93 in - Calm Calm - N/A   Unknown
3:53 PM 70.0 °F 64.9 °F 84% 29.92 in - Calm Calm - 0.11 in   Unknown
4:53 PM 70.0 °F 64.9 °F 84% 29.92 in - Calm Calm - 0.08 in   Unknown
5:53 PM 69.1 °F 64.9 °F 87% 29.92 in - Calm Calm - N/A   Unknown
6:53 PM 69.1 °F 64.9 °F 87% 29.95 in - North 5.8 mph - 0.01 in   Unknown
7:53 PM 68.0 °F 64.0 °F 87% 29.95 in - ENE 4.6 mph - N/A   Unknown
8:53 PM 66.9 °F 64.0 °F 90% 29.96 in - ENE 5.8 mph - N/A   Unknown
9:53 PM 68.0 °F 63.0 °F 84% 29.92 in - East 6.9 mph - N/A   Unknown
10:53 PM 68.0 °F 62.1 °F 81% 29.93 in - SE 3.5 mph - N/A   Unknown
11:53 PM 68.0 °F 62.1 °F 81% 29.91 in - SE 3.5 mph - N/A   Unknown